Regional Weather Roundup
Issued by NWS Newport/Morehead, NC

Current Version | Previous Version | Text Only | Print | Product List | Glossary On
Versions: 1 2 3 4 5 6 7 8 9 10 11 12 13 14 15 16 17 18 19 20 21 22 23 24 25 26 27 28 29 30 31 32 33 34 35 36 37 38 39 40 41 42 43 44 45 46 47 48 49 50
000
ASUS42 KMHX 270813
RWRMHX
WEATHER ROUNDUP FOR EASTERN NORTH CAROLINA
NATIONAL WEATHER SERVICE NEWPORT/MOREHEAD CITY NC
300 AM EST MON FEB 27 2017

NOTE: "FAIR" INDICATES FEW OR NO CLOUDS BELOW 12,000 FEET
WITH NO SIGNIFICANT WEATHER AND/OR OBSTRUCTIONS TO VISIBILITY

NCZ015>017-031-032-045>047-102-103-270900-
NORTH COAST

CITY           SKY/WX    TMP DP  RH WIND       PRES   REMARKS
EDENTON        CLEAR     39  37  93 SE3       30.38R
ELIZABETH CITY PTCLDY    39  37  92 S3        30.37S
KITTY HAWK     NOT AVBL
MANTEO         CLEAR     37  37  98 CALM      30.38S

$$

NCZ045>047-081-094-103-104-270900-
CENTRAL COAST

CITY           SKY/WX    TMP DP  RH WIND       PRES   REMARKS
FRISCO         CLEAR     37  32  82 NE3       30.37S

$$

NCZ095-097-098-100-101-270900-
SOUTHERN COAST

CITY           SKY/WX    TMP DP  RH WIND       PRES   REMARKS
BEAUFORT       CLEAR     42  36  79 NE6       30.35F
CEDAR ISLAND   NOT AVBL
JACKSONVILLE   CLEAR     34  33  96 CALM      30.34F
PINEY ISLAND   SUNNY    N/A N/A N/A SE3       30.36S
WILMINGTON     CLEAR     34  33  96 NE3       30.34F


$$

NCZ011>013-027>030-043-044-078>080-089-090>093-098-270900-
COASTAL PLAIN

CITY           SKY/WX    TMP DP  RH WIND       PRES   REMARKS
AHOSKIE          N/A     30  27  91 CALM      30.37R
CLINTON        PTCLDY    34  32  93 CALM      30.34F
ELIZABETHTOWN  CLEAR     35  31  86 CALM      30.33S
GOLDSBORO      PTCLDY    31  30  96 CALM      30.32F
GREENVILLE     CLEAR     34  32  93 CALM      30.37R
HAVELOCK       NOT AVBL
KENANSVILLE    PTCLDY    30  27  86 CALM      30.34F
KINSTON        CLEAR     32  28  86 CALM      30.36S
NEW BERN       CLEAR     34  32  92 S3        30.37F
RICHLANDS      CLEAR     30  28  92 CALM      30.35F
ROCKY MOUNT    CLEAR     30  29  96 CALM      30.35S
WASHINGTON     CLEAR     34  29  80 CALM      30.37S
WHITEVILLE     CLEAR     36  33  90 CALM      30.32S

$$

AMZ130-135-150-152-154-156-158-170-250-252-270-ANZ085-086-088-633-658-670-270900-
MARINE OBSERVATIONS

STATION/POSITION TIME  TEMP    WIND        PRES    WAVE   SWELL
                       AIR SEA DIR/SP/G            HT/PER HT/PER
                 (UTC) (F)     (DEG/KT/KT) (MB)    (FT/S) (FT/S)
CHESAPEAKE LIGHT NOT AVBL
64 E VA BEACH    0750   47 50   70/  2/  4 1028.7    3/ 9   3/ 9
DUCK             0748   47 49  130/  7/  8 1027.8
2 E DUCK         0800      49                N/A     2/ 9
OREGON INLET     0742   46 56   90/  4/  5 1028.5
13E OREGON INLT  NOT AVBL
HATTERAS CG      0748   51 61   70/  2/  3 1028.0
DIAMOND BUOY     0750   56 71  340/  6/ 12 1028.7    4/ 9   3/ 9
CAPE LOOKOUT     0800   54      60/  6/  8 1027.6
BEAUFORT LAB     0748   47 61   50/  4/  4 1026.9
30 SE NEW RVR IN 0708   56      10/  2/  6 1028.0
30 SE NEW RVR IN 0743      65                N/A     3/ 9
27 SE WRIGHTSVLE 0708   56 61  320/  4/  6 1026.3
5 SE WRIGHTSVLE  0708   53 58  340/  4/  6 1027.5
225 S CAPE HAT   0750   64 71   50/ 10/ 14 1026.4    5/ 7   5/ 7
41 SE CHARLESTON 0750   61 69   80/ 10/ 12 1026.2    3/ 8   3/ 8

$$




USA.gov is the U.S. government's official web portal to all federal, state and local government web resources and services.